Location: Trois-Rivi�res
(46.3500°N, 72.5500°W)
Time: 00:21:30
(UTC-04:00)

Cosmos 1544 - Visible Passes

Search period start: 21 August 2014 00:00
Search period end: 31 August 2014 00:00
Orbit: 501 x 526 km, 82.5° (Epoch: 20 August)

Date Brightness Start Highest point End Pass type
(mag) Time Alt. Az. Time Alt. Az. Time Alt. Az.
21 Aug 5.3 02:06:29 25° N 02:06:29 25° N 02:08:11 10° N visible
22 Aug 5.5 01:50:57 22° NNE 01:50:57 22° NNE 01:52:25 10° N visible
23 Aug 5.8 01:35:25 19° NNE 01:35:25 19° NNE 01:36:37 10° NNE visible
24 Aug 6.0 01:19:51 17° NNE 01:19:51 17° NNE 01:20:47 10° NNE visible
24 Aug 6.0 02:54:49 10° NW 02:54:49 10° NW 02:54:54 10° NW visible
25 Aug 6.1 01:04:16 14° NNE 01:04:16 14° NNE 01:04:55 10° NNE visible
25 Aug 6.0 02:39:14 11° NW 02:39:14 11° NW 02:39:34 10° NNW visible
26 Aug 6.3 00:48:41 12° NNE 00:48:41 12° NNE 00:49:01 10° NNE visible
26 Aug 6.0 02:23:38 12° NNW 02:23:38 12° NNW 02:24:05 10° NNW visible
27 Aug 6.1 02:08:02 12° NNW 02:08:02 12° NNW 02:08:31 10° NNW visible
28 Aug 6.2 01:52:24 13° NNW 01:52:24 13° NNW 01:52:54 10° NNW visible
29 Aug 6.3 01:36:46 13° NNW 01:36:46 13° NNW 01:37:13 10° N visible
30 Aug 6.3 01:21:07 12° N 01:21:07 12° N 01:21:30 10° N visible
